St. Johnsbury, VT

3:47 PM EDT on July 20, 2017 (GMT -0400)
St. Johnsbury

Weather History for K1V4 - October, 2010

Change the Weather History Date:

Tuesday, October 19, 2010

  Actual Average Record
Temperature  
Mean Temperature 38 °F 46 °F  
Max Temperature 51 °F 57 °F 79 °F (1968)
Min Temperature 27 °F 35 °F 17 °F (1972)
Degree Days  
Heating Degree Days 26 19  
Month to date heating degree days 297  
Since 1 July heating degree days 531  
Cooling Degree Days 0 0  
Month to date cooling degree days 0  
Year to date cooling degree days 432  
Moisture  
Dew Point 29 °F    
Average Humidity 77    
Maximum Humidity 100    
Minimum Humidity 39    
Precipitation  
Precipitation 0.00 in 0.12 in 1.20 in (1957)
Month to date precipitation 2.42  
Year to date precipitation 31.57  
Sea Level Pressure  
Sea Level Pressure 29.87 in    
Wind  
Wind Speed - (North)    
Max Wind Speed -    
Max Gust Speed -    
T = Trace of Precipitation, MM = Missing Value Source: NWS Daily Summary

Daily Weather History Graph

Daily Weather History Graph

Search for Another Location

Airport or City:

Trip Planner

Search our weather history database for the weather conditions in past years. The results will help you decide how hot, cold, wet, or windy it might be!

Date:

Astronomy

Oct. 19, 2010 Rise Set
Actual Time 7:08 AM EDT 5:57 PM EDT
Civil Twilight 6:38 AM EDT 6:26 PM EDT
Nautical Twilight 6:04 AM EDT 7:00 PM EDT
Astronomical Twilight 5:31 AM EDT 7:33 PM EDT
Moon 4:10 PM EDT (10/19) 3:44 AM EDT (10/19)
Length of Visible Light 11h 47m
Length of Day
10h 49m
Waxing Gibbous, 89% of the Moon is Illuminated
Oct 19
Waxing Gibbous
Oct 22
Full
Oct 30
Last Quarter
Nov 6
New
Nov 13
First Quarter

Hourly Weather History & Observations

Time (EDT) Temp. Dew Point Humidity Pressure Visibility Wind Dir Wind Speed Gust Speed Precip Events Conditions
12:54 AM 32.0 °F 28.9 °F 88% 29.88 in - North - - N/A   Unknown
1:54 AM 32.0 °F 28.0 °F 85% 29.88 in - North - - N/A   Unknown
2:54 AM 30.0 °F 28.0 °F 92% 29.88 in - North - - N/A   Unknown
3:54 AM 28.9 °F 27.0 °F 92% 29.87 in - North - - N/A   Unknown
4:54 AM 28.0 °F 26.1 °F 92% 29.87 in - North - - N/A   Unknown
5:54 AM 27.0 °F 27.0 °F 100% 29.89 in - North - - N/A   Unknown
6:54 AM 27.0 °F 26.1 °F 96% 29.90 in - North - - N/A   Unknown
7:54 AM 27.0 °F 27.0 °F 100% 29.91 in - North - - N/A   Unknown
8:54 AM 28.9 °F 28.9 °F 100% 29.92 in - North - - N/A   Unknown
9:54 AM 32.0 °F 30.0 °F 92% 29.92 in - North - - N/A   Unknown
10:54 AM 39.0 °F 30.0 °F 70% 29.90 in - North - - N/A   Unknown
11:54 AM 45.0 °F 28.9 °F 53% 29.87 in - North - - N/A   Unknown
12:54 PM 48.9 °F 27.0 °F 43% 29.83 in - North - - N/A   Unknown
1:54 PM 50.0 °F 26.1 °F 39% 29.82 in - North - - N/A   Unknown
3:54 PM 50.0 °F 28.0 °F 43% 29.82 in - North - - N/A   Unknown
4:54 PM 50.0 °F 28.0 °F 43% 29.82 in - North - - N/A   Unknown
5:54 PM 48.0 °F 28.9 °F 48% 29.82 in - North - - N/A   Unknown
6:54 PM 43.0 °F 32.0 °F 65% 29.84 in - North - - N/A   Unknown
7:54 PM 39.0 °F 32.0 °F 76% 29.86 in - North - - N/A   Unknown
8:54 PM 39.0 °F 33.1 °F 79% 29.86 in - North - - N/A   Unknown
9:54 PM 36.0 °F 33.1 °F 89% 29.88 in - North - - N/A   Unknown
10:54 PM 35.1 °F 32.0 °F 89% 29.87 in - North - - N/A   Unknown
11:54 PM 33.1 °F 30.9 °F 92% 29.87 in - North - - N/A   Unknown